HULIANWANG DIGUI-161

导读 | 豆包AI

HULIANWANG DIGUI-161(NORAD编号68135)隶属于我国国网星座系统,是该商业卫星组网中的一员。该卫星于2025年11月随组网批次任务发射入轨,目前处于在轨运行状态,运行轨道倾角约50度,轨道周期约107分钟,运行在近地轨道区间。 作为低轨通信遥感一体化组网卫星,它主要服务于天地一体化网络建设,可支持国土普查、防灾减灾、农业监测等多元应用场景,为国家对地观测体系补充观测能力,同时支撑商业航天服务的规模化落地,助力“一带一路”空间信息走廊建设。

基本信息
目录编号:
68135
目录名称:
HULIANWANG DIGUI-161
国际标识:
2026-047G
轨道中心:
EARTH
卫星名称:
HULIANWANG DIGUI-161
卫星全名:
HULIANWANG DIGUI-161
卫星状态:
在轨 (已飞行80 天)
发射日期:
2026-03-12 UTC
国别 :
中国 (CN)
星等 :
--
轨道信息
数据来源 国际轨道数据 AOE轨道数据
星历时间 2026-05-30T16:52:49+0800
17小时前
查看轨道信息
2026-05-30T23:00:00+0800
11小时前
查看轨道信息
半长轴 7527.424km 7527.426km
偏心率 0.0000334 0.0000018
轨道倾角 50.008° 50.009°
近地点辐角 14.216° 311.562°
升交点赤经 119.969° 119.056°
平近点角 345.872° 189.553°
近地点 1149.035km 1149.275km
远地点 1149.539km 1149.303km
周期 108.325分钟 108.325分钟
每日圈数 13.293314 13.293309
详细信息
使用方式:
暂无
2D轨道图
3D轨道图
轨道高度分析图
轨道倾角分析图
轨道综合分析图
查看轨道综合分析图